EW8956 Weather Reports


Display with metric or nautical units.
time (UTC)temp
F
wind
direction
speed
MPH
gust
MPH
rain 1hr
in
rain 24hr
in
rain mn
in
humidity
%
barometer
mb
20260831233048 79 0 0.0 0.0 0.00 1.13 1.13 84 1019.2
20260831231603 79 0 0.0 0.0 0.00 1.13 1.13 86 1019.4
20260831230056 79 0 0.0 0.0 0.00 1.13 1.13 84 1019.3
20260831224551 79 0 0.0 0.0 0.00 1.13 1.13 84 1019.4
20260831223049 79 0 0.0 0.0 0.00 1.13 1.13 84 1019.5
20260831221545 79 0 0.0 0.0 0.00 1.13 1.13 84 1019.8
20260831220054 79 0 0.0 2.0 0.00 1.13 1.13 83 1019.9
20260831214555 78 0 0.0 1.0 0.00 1.13 1.13 85 1019.7
20260831213049 77 0 0.0 2.0 0.00 1.13 1.13 87 1019.8
20260831211544 77 0 0.0 3.0 0.11 1.13 1.13 88 1019.9
20260831210052 75 0 0.0 2.0 0.64 1.13 1.13 91 1020.0
20260831204551 73 0 0.0 6.0 1.13 1.13 1.13 88 1020.2
20260831203054 73 175 1.0 13.0 1.13 1.13 1.13 89 1020.5
20260831201557 74 184 4.0 12.0 0.99 0.99 0.99 88 1021.2
20260831200058 78 121 3.0 8.0 0.46 0.46 0.46 78 1021.5
20260831194639 93 323 0.0 4.0 0.00 0.00 0.00 50 1020.2
20260831193058 91 0 0.0 6.0 0.00 0.00 0.00 51 1019.9
20260831191558 91 113 1.0 4.0 0.00 0.00 0.00 51 1020.1
20260831190116 91 0 0.0 0.0 0.00 0.00 0.00 54 1020.3
20260831184559 92 0 0.0 2.0 0.00 0.00 0.00 52 1020.5
20260831183100 91 0 0.0 4.0 0.00 0.00 0.00 54 1020.5
20260831181603 90 0 0.0 3.0 0.00 0.00 0.00 53 1020.6
20260831180106 90 0 0.0 3.0 0.00 0.00 0.00 58 1021.0
20260831174633 90 128 0.0 2.0 0.00 0.00 0.00 57 1021.1
20260831173051 90 0 0.0 2.0 0.00 0.00 0.00 58 1021.1
20260831171553 88 0 0.0 2.0 0.00 0.00 0.00 59 1021.3
20260831170108 89 277 0.0 5.0 0.00 0.00 0.00 59 1021.3
20260831164554 89 0 0.0 4.0 0.00 0.00 0.00 59 1021.4
20260831163055 87 119 0.0 3.0 0.00 0.00 0.00 61 1021.6
20260831161555 86 0 0.0 7.0 0.00 0.00 0.00 64 1021.7
20260831160051 86 0 0.0 1.0 0.00 0.00 0.00 64 1021.8
20260831154615 86 0 0.0 2.0 0.00 0.00 0.00 66 1021.8
20260831153059 85 213 0.0 4.0 0.00 0.00 0.00 65 1022.0
20260831151553 84 0 0.0 2.0 0.00 0.00 0.00 68 1021.9
20260831150059 84 0 0.0 3.0 0.00 0.00 0.00 69 1022.2
20260831144601 83 0 0.0 4.0 0.00 0.00 0.00 71 1022.1
20260831143056 82 0 0.0 3.0 0.00 0.00 0.00 74 1022.1
20260831141558 81 0 1.0 5.0 0.00 0.00 0.00 76 1022.0
20260831140053 80 0 0.0 5.0 0.00 0.00 0.00 77 1021.9
20260831134601 79 0 0.0 3.0 0.00 0.00 0.00 79 1021.9
20260831133102 77 329 0.0 5.0 0.00 0.00 0.00 82 1021.9
20260831131555 76 0 0.0 1.0 0.00 0.00 0.00 84 1022.0
20260831130100 75 0 0.0 3.0 0.00 0.00 0.00 87 1021.9
20260831124552 73 0 0.0 4.0 0.00 0.00 0.00 89 1022.0
20260831123051 72 0 0.0 3.0 0.00 0.00 0.00 92 1022.0
20260831121549 71 0 0.0 0.0 0.00 0.00 0.00 94 1022.0
20260831120058 70 0 0.0 0.0 0.00 0.00 0.00 94 1021.9
20260831114555 69 0 0.0 0.0 0.00 0.00 0.00 94 1021.9
20260831113105 68 0 0.0 0.0 0.00 0.00 0.00 94 1021.8
20260831111548 68 0 0.0 0.0 0.00 0.00 0.00 94 1021.8
20260831110055 68 0 0.0 0.0 0.00 0.00 0.00 94 1021.7
20260831104559 68 0 0.0 0.0 0.00 0.00 0.00 93 1021.7
20260831103052 68 0 0.0 0.0 0.00 0.00 0.00 93 1021.5
20260831101552 68 0 0.0 0.0 0.00 0.00 0.00 93 1021.6
20260831100100 68 0 0.0 0.0 0.00 0.00 0.00 93 1021.3
20260831094603 68 0 0.0 0.0 0.00 0.00 0.00 93 1021.4
20260831093138 68 0 0.0 0.0 0.00 0.00 0.00 93 1021.3
20260831091555 68 0 0.0 0.0 0.00 0.00 0.00 93 1021.2
20260831090057 68 0 0.0 0.0 0.00 0.00 0.00 93 1021.0
20260831084635 68 0 0.0 0.0 0.00 0.00 0.00 93 1021.1
20260831083056 68 0 0.0 0.0 0.00 0.00 0.00 93 1021.3
20260831081550 68 0 0.0 0.0 0.00 0.00 0.00 92 1021.3
20260831080117 68 0 0.0 0.0 0.00 0.00 0.00 92 1021.3
20260831074555 68 0 0.0 0.0 0.00 0.00 0.00 92 1021.4
20260831073053 69 0 0.0 0.0 0.00 0.00 0.00 92 1021.5
20260831071553 69 0 0.0 0.0 0.00 0.00 0.00 92 1021.4
20260831070058 69 0 0.0 0.0 0.00 0.00 0.00 92 1021.4
20260831064557 69 0 0.0 0.0 0.00 0.00 0.00 92 1021.5
20260831063107 69 0 0.0 0.0 0.00 0.00 0.00 91 1021.5
20260831061551 69 0 0.0 0.0 0.00 0.00 0.00 91 1021.5
20260831060058 69 0 0.0 0.0 0.00 0.00 0.00 91 1021.6
20260831054556 70 0 0.0 0.0 0.00 0.00 0.00 91 1021.7
20260831053100 70 0 0.0 0.0 0.00 0.00 0.00 91 1021.7
20260831051551 70 0 0.0 0.0 0.00 0.00 0.00 90 1021.6
20260831050108 70 0 0.0 0.0 0.00 0.00 0.00 90 1021.8
20260831044554 71 0 0.0 0.0 0.00 0.00 0.00 90 1021.8
20260831043054 71 0 0.0 0.0 0.00 0.00 0.00 89 1021.7
20260831041554 71 0 0.0 0.0 0.00 0.00 0.00 89 1021.6
20260831040056 71 0 0.0 0.0 0.00 0.00 0.00 88 1021.7
20260831034602 72 0 0.0 0.0 0.00 0.00 0.00 88 1021.9
20260831033100 72 0 0.0 0.0 0.00 0.00 0.00 87 1021.9
20260831031549 73 0 0.0 0.0 0.00 0.00 0.00 86 1022.0
20260831030057 73 0 0.0 0.0 0.00 0.00 0.00 86 1022.2
20260831024559 74 0 0.0 0.0 0.00 0.00 0.00 85 1022.3
20260831023054 74 0 0.0 0.0 0.00 0.00 0.00 84 1022.3
20260831021550 74 0 0.0 0.0 0.00 0.00 0.00 82 1022.3
20260831020056 75 0 0.0 0.0 0.00 0.00 0.00 80 1021.9
20260831014553 76 0 0.0 0.0 0.00 0.00 0.00 79 1021.8
20260831013050 76 0 0.0 0.0 0.00 0.00 0.00 78 1021.8
20260831011553 77 0 0.0 0.0 0.00 0.00 0.00 76 1021.7
20260831010106 77 0 0.0 4.0 0.00 0.00 0.00 76 1021.6
20260831004553 78 0 0.0 2.0 0.00 0.00 0.00 75 1021.4
20260831003052 78 0 0.0 1.0 0.00 0.00 0.00 74 1021.3
20260831001550 79 0 0.0 0.0 0.00 0.00 0.00 73 1021.3
20260831000055 80 0 0.0 1.0 0.00 0.00 0.00 71 1021.5
20260830234554 80 0 0.0 1.0 0.00 0.00 0.00 69 1021.4